When you browse on this site, cookies collect data to enhance your experience and personalize the content and advertising you see.
Visit our Privacy Policy to learn more. By continuing to use the site, you agree to this use of cookies and data.
  • In Portugal
  • List of Countries
  • For 7 days
  • Water Temperature
  • Satellite Maps
  • Weather Map
  • Weather Widgets
  • user-avatar
    Login

    Hourly Weather Cisow

    Today, 15 December, Saturday

    Time Temperature Precipitation Wind Pressure Humidity
    00:00 -5°C° 0 mm 2 mps 732 mmHg 87%
    01:00 -5°C° 0 mm 2 mps 732 mmHg 88%
    02:00 -5°C° 0 mm 2 mps 732 mmHg 89%
    03:00 -5°C° 0 mm 3 mps 732 mmHg 89%
    04:00 -5°C° 0 mm 3 mps 732 mmHg 90%
    05:00 -5°C° 0 mm 3 mps 732 mmHg 90%
    06:00 -5°C° 0 mm 3 mps 732 mmHg 90%
    07:00 -5°C° 0 mm 3 mps 732 mmHg 90%
    08:00 -5°C° 0 mm 3 mps 732 mmHg 89%
    09:00 -4°C° 0 mm 3 mps 732 mmHg 87%
    10:00 -4°C° 0 mm 3 mps 732 mmHg 86%
    11:00 -4°C° 0 mm 3 mps 732 mmHg 83%
    12:00 -4°C° 0 mm 3 mps 732 mmHg 81%
    13:00 -2°C° 0 mm 3 mps 732 mmHg 78%
    14:00 -4°C° 0 mm 3 mps 732 mmHg 80%
    15:00 -4°C° 0 mm 3 mps 731 mmHg 82%
    16:00 -5°C° 0 mm 3 mps 731 mmHg 84%
    17:00 -5°C° 0 mm 3 mps 731 mmHg 85%
    18:00 -5°C° 0 mm 3 mps 731 mmHg 86%
    19:00 -6°C° 0 mm 3 mps 731 mmHg 88%
    20:00 -5°C° 0 mm 2 mps 731 mmHg 88%
    21:00 -5°C° 0 mm 2 mps 730 mmHg 89%
    22:00 -5°C° 0 mm 2 mps 730 mmHg 89%
    23:00 -5°C° 0 mm 2 mps 730 mmHg 89%

    Tomorrow, 16 December, Sunday

    Time Temperature Precipitation Wind Pressure Humidity
    00:00 -5°C° 0 mm 2 mps 729 mmHg 90%
    01:00 -5°C° 0 mm 2 mps 729 mmHg 91%
    02:00 -5°C° 0 mm 2 mps 729 mmHg 90%
    03:00 -5°C° 0 mm 2 mps 728 mmHg 90%
    04:00 -5°C° 0 mm 2 mps 728 mmHg 89%
    05:00 -5°C° 0 mm 2 mps 728 mmHg 89%
    06:00 -6°C° 0 mm 2 mps 727 mmHg 89%
    07:00 -4°C° 0 mm 1 mps 727 mmHg 89%
    08:00 -5°C° 0 mm 2 mps 727 mmHg 87%
    09:00 -5°C° 0 mm 2 mps 727 mmHg 85%
    10:00 -5°C° 0 mm 2 mps 727 mmHg 83%
    11:00 -4°C° 0 mm 2 mps 726 mmHg 79%
    12:00 -3°C° 0 mm 2 mps 726 mmHg 76%
    13:00 -3°C° 0 mm 2 mps 726 mmHg 72%
    14:00 -3°C° 0 mm 2 mps 726 mmHg 76%
    15:00 -4°C° 0 mm 2 mps 725 mmHg 79%
    16:00 -5°C° 0 mm 2 mps 725 mmHg 82%
    17:00 -4°C° 0 mm 2 mps 725 mmHg 81%
    18:00 -5°C° 0 mm 3 mps 725 mmHg 80%
    19:00 -5°C° 0 mm 3 mps 725 mmHg 80%
    20:00 -5°C° 0 mm 3 mps 725 mmHg 79%
    21:00 -5°C° 0 mm 3 mps 725 mmHg 79%
    22:00 -5°C° 0 mm 3 mps 726 mmHg 78%
    23:00 -5°C° 0 mm 3 mps 726 mmHg 80%

    Day after tomorrow, 17 December, Monday

    Time Temperature Precipitation Wind Pressure Humidity
    00:00 -4°C° 0 mm 2 mps 726 mmHg 81%
    01:00 -5°C° 0 mm 2 mps 726 mmHg 83%
    02:00 -4°C° 0 mm 2 mps 726 mmHg 83%
    03:00 -4°C° 0 mm 2 mps 726 mmHg 84%
    04:00 -4°C° 0 mm 2 mps 726 mmHg 84%
    05:00 -4°C° 0 mm 2 mps 727 mmHg 85%
    06:00 -4°C° 0 mm 2 mps 727 mmHg 86%
    07:00 -4°C° 0 mm 2 mps 727 mmHg 87%
    08:00 -4°C° 0 mm 2 mps 727 mmHg 85%
    09:00 -3°C° 0 mm 2 mps 728 mmHg 84%
    10:00 0°C° 0 mm 1 mps 728 mmHg 82%
    11:00 +1°C° 0 mm 1 mps 729 mmHg 81%
    12:00 +1°C° 0 mm 1 mps 729 mmHg 79%
    13:00 +2°C° 0 mm 1 mps 729 mmHg 78%
    14:00 +1°C° 0 mm 1 mps 729 mmHg 81%
    15:00 0°C° 0 mm 1 mps 730 mmHg 84%
    16:00 0°C° 0 mm 1 mps 730 mmHg 86%
    17:00 -1°C° 0 mm 1 mps 730 mmHg 86%
    18:00 -1°C° 0 mm 1 mps 731 mmHg 87%
    19:00 -1°C° 0 mm 1 mps 731 mmHg 87%
    20:00 -1°C° 0 mm 1 mps 732 mmHg 87%
    21:00 -1°C° 0 mm 1 mps 732 mmHg 86%
    22:00 -3°C° 0 mm 2 mps 732 mmHg 86%
    23:00 -3°C° 0 mm 2 mps 732 mmHg 86%

    18 December, Tuesday

    Time Temperature Precipitation Wind Pressure Humidity
    00:00 -3°C° 0 mm 2 mps 732 mmHg 86%
    01:00 -3°C° 0 mm 2 mps 732 mmHg 86%
    02:00 -3°C° 0 mm 2 mps 732 mmHg 86%
    03:00 -3°C° 0 mm 2 mps 732 mmHg 87%
    04:00 -3°C° 0 mm 2 mps 732 mmHg 87%
    05:00 -3°C° 0 mm 2 mps 732 mmHg 87%
    06:00 -1°C° 0 mm 1 mps 733 mmHg 88%
    07:00 -1°C° 0 mm 1 mps 733 mmHg 88%
    08:00 0°C° 0 mm 1 mps 733 mmHg 86%
    09:00 0°C° 0 mm 1 mps 733 mmHg 85%
    10:00 +1°C° 0 mm 1 mps 733 mmHg 83%
    11:00 +1°C° 0 mm 1 mps 733 mmHg 82%
    12:00 +2°C° 0 mm 1 mps 733 mmHg 82%
    13:00 +2°C° 0 mm 0 mps 733 mmHg 81%
    14:00 +1°C° 0 mm 0 mps 732 mmHg 83%
    15:00 +1°C° 0 mm 1 mps 732 mmHg 86%
    16:00 0°C° 0 mm 1 mps 732 mmHg 88%
    17:00 0°C° 0 mm 1 mps 732 mmHg 89%
    18:00 -1°C° 0 mm 0 mps 732 mmHg 89%
    19:00 -1°C° 0 mm 0 mps 732 mmHg 90%
    20:00 -1°C° 0 mm 1 mps 732 mmHg 90%
    21:00 -1°C° 0 mm 1 mps 731 mmHg 90%
    22:00 -1°C° 0 mm 1 mps 731 mmHg 90%
    23:00 -1°C° 0 mm 1 mps 731 mmHg 90%

    19 December, Wednesday

    Time Temperature Precipitation Wind Pressure Humidity
    00:00 -1°C° 0 mm 1 mps 731 mmHg 91%
    01:00 -1°C° 0 mm 1 mps 731 mmHg 91%
    02:00 -1°C° 0 mm 1 mps 730 mmHg 91%
    03:00 -1°C° 0 mm 1 mps 730 mmHg 91%
    04:00 -1°C° 0 mm 1 mps 730 mmHg 91%
    05:00 -3°C° 0 mm 2 mps 730 mmHg 91%
    06:00 -4°C° 0 mm 2 mps 730 mmHg 90%
    07:00 -4°C° 0 mm 2 mps 730 mmHg 90%
    08:00 -3°C° 0 mm 2 mps 730 mmHg 88%
    09:00 -2°C° 0 mm 2 mps 730 mmHg 86%
    10:00 -2°C° 0 mm 2 mps 730 mmHg 83%
    11:00 -1°C° 0 mm 2 mps 730 mmHg 82%
    12:00 +1°C° 0 mm 2 mps 730 mmHg 81%
    13:00 +1°C° 0 mm 2 mps 729 mmHg 80%
    14:00 -1°C° 0 mm 2 mps 729 mmHg 83%
    15:00 -2°C° 0 mm 2 mps 729 mmHg 86%
    16:00 -3°C° 0 mm 2 mps 729 mmHg 89%
    17:00 -3°C° 0 mm 2 mps 729 mmHg 89%
    18:00 -3°C° 0 mm 2 mps 729 mmHg 90%
    19:00 -3°C° 0 mm 2 mps 729 mmHg 90%
    20:00 -3°C° 0 mm 2 mps 729 mmHg 90%
    21:00 -3°C° 0 mm 2 mps 729 mmHg 90%
    22:00 -4°C° 0 mm 2 mps 729 mmHg 90%
    23:00 -4°C° 0 mm 2 mps 729 mmHg 90%

    20 December, Thursday

    Time Temperature Precipitation Wind Pressure Humidity
    00:00 -4°C° 0 mm 2 mps 729 mmHg 90%
    01:00 -4°C° 0 mm 2 mps 728 mmHg 90%
    02:00 -4°C° 0 mm 2 mps 728 mmHg 90%
    03:00 -4°C° 0 mm 2 mps 728 mmHg 89%
    04:00 -4°C° 0 mm 2 mps 728 mmHg 88%
    05:00 -3°C° 0 mm 2 mps 728 mmHg 87%
    06:00 -4°C° 0 mm 3 mps 728 mmHg 86%
    07:00 -4°C° 0 mm 3 mps 728 mmHg 86%
    08:00 -4°C° 0 mm 3 mps 729 mmHg 84%
    09:00 -4°C° 0 mm 3 mps 729 mmHg 82%
    10:00 -2°C° 0 mm 3 mps 729 mmHg 80%
    11:00 -2°C° 0 mm 3 mps 729 mmHg 79%
    12:00 -2°C° 0 mm 3 mps 728 mmHg 78%
    13:00 -1°C° 0 mm 3 mps 728 mmHg 76%
    14:00 -2°C° 0 mm 2 mps 728 mmHg 79%
    15:00 -2°C° 0 mm 2 mps 728 mmHg 81%
    16:00 -3°C° 0 mm 2 mps 728 mmHg 84%
    17:00 -3°C° 0 mm 2 mps 728 mmHg 84%
    18:00 -3°C° 0 mm 2 mps 728 mmHg 85%
    19:00 -3°C° 0 mm 2 mps 728 mmHg 86%
    20:00 -3°C° 0 mm 2 mps 728 mmHg 86%
    21:00 -3°C° 0 mm 2 mps 728 mmHg 86%
    22:00 -3°C° 0 mm 2 mps 728 mmHg 86%
    23:00 -3°C° 0 mm 2 mps 728 mmHg 86%
    Show more